TimeSAST,TemperatureF,Dew PointF,Humidity,Sea Level PressureIn,VisibilityMPH,Wind Direction,Wind SpeedMPH,Gust SpeedMPH,PrecipitationIn,Events,Conditions,WindDirDegrees,DateUTC
12:00 AM,66.2,62.6,88,30.09,6.2,East,2.3,-,N/A,,Partly Cloudy,90,2014-01-16 22:00:00
1:00 AM,64.4,62.6,94,30.06,5.0,Variable,2.3,-,N/A,,Scattered Clouds,0,2014-01-16 23:00:00
2:00 AM,65,62,87,30.06,6,NNW,2.3,,,,,340,2014-01-17 00:00:00
2:00 AM,64.4,62.6,94,30.06,6.2,Variable,2.3,-,N/A,,Mostly Cloudy,0,2014-01-17 00:00:00
3:00 AM,64.4,60.8,88,30.04,6.2,Variable,2.3,-,N/A,,Overcast,0,2014-01-17 01:00:00
4:00 AM,64.4,60.8,88,30.04,6.2,North,4.6,-,N/A,,Overcast,350,2014-01-17 02:00:00
5:00 AM,64,61,86,30.04,6,NNW,3.5,,,,Mostly Cloudy,340,2014-01-17 03:00:00
5:00 AM,64.4,60.8,88,30.04,5.6,NNW,4.6,-,N/A,,Mostly Cloudy,340,2014-01-17 03:00:00
6:00 AM,62.6,59.0,88,30.06,6.2,NW,3.5,-,N/A,,Mostly Cloudy,320,2014-01-17 04:00:00
7:00 AM,66.2,62.6,88,30.06,6.2,Variable,2.3,-,N/A,,Mostly Cloudy,0,2014-01-17 05:00:00
8:00 AM,69,62,74,30.08,12,WNW,3.5,,,,Partly Cloudy,300,2014-01-17 06:00:00
8:00 AM,69.8,62.6,78,30.06,6.2,WNW,3.5,-,N/A,,Scattered Clouds,300,2014-01-17 06:00:00
9:00 AM,73.4,60.8,65,30.06,6.2,Variable,2.3,-,N/A,,Partly Cloudy,0,2014-01-17 07:00:00
10:00 AM,73.4,60.8,65,30.06,6.2,SE,5.8,-,N/A,,Partly Cloudy,140,2014-01-17 08:00:00
11:00 AM,74,63,60,30.06,12,SSW,5.8,,,,Scattered Clouds,200,2014-01-17 09:00:00
11:00 AM,73.4,62.6,69,30.06,6.2,Variable,5.8,-,N/A,,Partly Cloudy,0,2014-01-17 09:00:00
12:00 PM,73.4,62.6,69,30.06,6.2,South,9.2,-,N/A,,Partly Cloudy,190,2014-01-17 10:00:00
1:00 PM,75.2,62.6,65,30.06,6.2,South,8.1,-,N/A,,Partly Cloudy,170,2014-01-17 11:00:00
2:00 PM,75,64,59,30.06,12,South,10.4,,,,Scattered Clouds,180,2014-01-17 12:00:00
2:00 PM,75.2,64.4,69,30.06,6.2,South,10.4,-,N/A,,Partly Cloudy,180,2014-01-17 12:00:00
3:00 PM,73.4,62.6,69,30.06,6.2,South,10.4,-,N/A,,Scattered Clouds,190,2014-01-17 13:00:00
4:00 PM,73.4,57.2,57,30.06,6.2,SSW,10.4,-,N/A,,Scattered Clouds,200,2014-01-17 14:00:00
5:00 PM,71,55,47,30.08,12,South,9.2,,,,Scattered Clouds,190,2014-01-17 15:00:00
5:00 PM,71.6,55.4,57,30.06,6.2,South,9.2,-,N/A,,Partly Cloudy,190,2014-01-17 15:00:00
6:00 PM,69.8,60.8,73,30.06,6.2,South,5.8,-,N/A,,Scattered Clouds,180,2014-01-17 16:00:00
7:00 PM,68.0,59.0,73,30.09,6.2,South,4.6,-,N/A,,Scattered Clouds,190,2014-01-17 17:00:00
8:00 PM,67,60,72,30.12,12,West,3.5,,,,Partly Cloudy,270,2014-01-17 18:00:00
8:00 PM,68.0,60.8,78,30.09,6.2,West,3.5,-,N/A,,Scattered Clouds,270,2014-01-17 18:00:00
9:00 PM,66.2,60.8,83,30.12,6.2,West,3.5,-,N/A,,Partly Cloudy,270,2014-01-17 19:00:00
10:00 PM,66.2,60.8,83,30.12,6.2,NNW,4.6,-,N/A,,Mostly Cloudy,340,2014-01-17 20:00:00
11:00 PM,66.2,59.0,78,30.09,6.2,NNW,4.6,-,N/A,,Mostly Cloudy,340,2014-01-17 21:00:00